Georgetown, DE

9:48 PM EDT on May 28, 2017 (GMT -0400)
Sussex County

Weather History for KGED - August, 2014

Change the Weather History Date:

Monday, August 18, 2014

  Actual Average Record
Temperature  
Mean Temperature 73 °F 76 °F  
Max Temperature 81 °F 85 °F 97 °F (2002)
Min Temperature 64 °F 67 °F 49 °F (1981)
Degree Days  
Heating Degree Days 0 0  
Month to date heating degree days 0 0  
Since 1 June heating degree days 5 13  
Since 1 July heating degree days 0 0  
Cooling Degree Days 8 11  
Month to date cooling degree days 150 206  
Year to date cooling degree days 849 906  
Since 1 June cooling degree days 748 812  
Growing Degree Days 22 (Base 50)    
Moisture  
Dew Point 62 °F    
Average Humidity 71    
Maximum Humidity 90    
Minimum Humidity 52    
Precipitation  
Precipitation 0.00 in 0.12 in 2.24 in (1992)
Month to date precipitation 3.94 1.88  
Year to date precipitation 29.92 27.62  
Sea Level Pressure  
Sea Level Pressure 29.90 in    
Wind  
Wind Speed 9 mph (ESE)    
Max Wind Speed 16 mph    
Max Gust Speed 20 mph    
Visibility 10 miles    
Events      
T = Trace of Precipitation, MM = Missing Value Source: NWS Daily Summary

Daily Weather History Graph

Daily Weather History Graph

Search for Another Location

Airport or City:

Trip Planner

Search our weather history database for the weather conditions in past years. The results will help you decide how hot, cold, wet, or windy it might be!

Date:

Astronomy

Aug. 18, 2014 Rise Set
Actual Time 6:18 AM EDT 7:51 PM EDT
Civil Twilight 5:49 AM EDT 8:19 PM EDT
Nautical Twilight 5:15 AM EDT 8:53 PM EDT
Astronomical Twilight 4:40 AM EDT 9:29 PM EDT
Moon 12:24 AM EDT (8/18) 2:51 PM EDT (8/18)
Length of Visible Light 14h 29m
Length of Day
13h 33m
Last Quarter, 38% of the Moon is Illuminated
Aug 18
Last Quarter
Aug 25
New
Sep 2
First Quarter
Sep 8
Full
Sep 15
Last Quarter

Hourly Weather History & Observations

Time (EDT) Temp. Heat Index Dew Point Humidity Pressure Visibility Wind Dir Wind Speed Gust Speed Precip Events Conditions
12:54 AM 70.0 °F - 66.9 °F 90% 29.92 in 5.0 mi South 6.9 mph - N/A   Clear
1:54 AM 71.1 °F - 63.0 °F 75% 29.91 in 10.0 mi ENE 6.9 mph - N/A   Clear
2:54 AM 69.1 °F - 63.0 °F 81% 29.91 in 10.0 mi SSE 6.9 mph - N/A   Mostly Cloudy
3:54 AM 66.9 °F - 63.0 °F 87% 29.91 in 10.0 mi ENE 9.2 mph - N/A   Clear
4:54 AM 66.0 °F - 61.0 °F 84% 29.91 in 10.0 mi East 9.2 mph - N/A   Partly Cloudy
5:54 AM 66.0 °F - 60.1 °F 81% 29.92 in 10.0 mi East 8.1 mph - N/A   Partly Cloudy
6:54 AM 64.0 °F - 60.1 °F 87% 29.93 in 10.0 mi East 6.9 mph - N/A   Clear
7:54 AM 70.0 °F - 62.1 °F 76% 29.94 in 10.0 mi East 9.2 mph - N/A   Mostly Cloudy
8:54 AM 73.0 °F - 60.1 °F 64% 29.94 in 10.0 mi East 12.7 mph - N/A   Overcast
9:54 AM 75.0 °F - 60.1 °F 60% 29.94 in 10.0 mi ENE 12.7 mph - N/A   Overcast
10:54 AM 75.9 °F - 57.0 °F 52% 29.95 in 10.0 mi East 9.2 mph - N/A   Mostly Cloudy
11:54 AM 78.1 °F - 59.0 °F 52% 29.94 in 10.0 mi ENE 11.5 mph 16.1 mph N/A   Mostly Cloudy
12:54 PM 77.0 °F - 60.1 °F 56% 29.92 in 10.0 mi SSE 11.5 mph - N/A   Overcast
1:54 PM 79.0 °F - 60.1 °F 52% 29.90 in 10.0 mi ESE 6.9 mph - N/A   Scattered Clouds
2:54 PM 78.1 °F - 61.0 °F 56% 29.89 in 10.0 mi South 12.7 mph 18.4 mph N/A   Mostly Cloudy
3:54 PM 80.1 °F 81.5 °F 63.0 °F 56% 29.87 in 10.0 mi East 8.1 mph - N/A   Scattered Clouds
4:54 PM 79.0 °F - 64.0 °F 60% 29.86 in 10.0 mi South 13.8 mph - N/A   Overcast
5:54 PM 77.0 °F - 64.0 °F 64% 29.84 in 10.0 mi SE 5.8 mph - N/A   Mostly Cloudy
7:54 PM 73.0 °F - 63.0 °F 71% 29.86 in 10.0 mi SE 6.9 mph - N/A   Scattered Clouds
8:54 PM 72.0 °F - 63.0 °F 73% 29.87 in 10.0 mi East 3.5 mph - N/A   Overcast
9:54 PM 71.1 °F - 64.0 °F 78% 29.88 in 10.0 mi East 9.2 mph - N/A   Mostly Cloudy
10:54 PM 71.1 °F - 64.0 °F 78% 29.86 in 10.0 mi East 5.8 mph - N/A   Overcast